sat.trackr.live / text

‹ back to catalog

STARLINK-36674

NORAD 67661 · 2026-022P

PAYLOAD ACTIVE UNKNOWN

§ Identity

Operator
Country
US
Launch date
2026-02-02
Launch site
AFWTR
Launch vehicle
Mass (kg)
RCS (m²)

Purposes: comms

External: N2YO · Heavens-Above · Gunter

§ Orbital elements

Epoch: 2026-09-18T21:31:47.121024Z

Period
93.91 min
Inclination
97.2861°
Eccentricity
0.0000889
Mean motion
15.33453079 rev/d
Perigee alt
464.9 km
Apogee alt
466.1 km
Semi-major
6,843.7 km
B*
4.4798e-4
RAAN
293.5167°
Arg perigee
152.0706°
Mean anomaly
208.0585°
Rev number
3,518

§ Raw data

STARLINK-366741 67661U 26022P   26261.89707316  .00014419  00000+0  44798-3 0  99992 67661  97.2861 293.5167 0000889 152.0706 208.0585 15.33453079 35185

JSON: /api/v1/satellites/67661 · /tle

For live sub-satellite position, see the globe view (requires WebGL).

§ Visibility from observer

Set your observer location to see the next 7 days of passes ≥ 10°. The values pass through the URL so the page stays shareable.

No JS? Fill the form by hand. The geolocation button needs JavaScript.